Regional Weather Roundup
Issued by NWS

Home | Current Version | Previous Version | Text Only | Print | Product List | Glossary On
Versions: 1 2 3 4 5 6 7 8 9 10 11 12 13 14 15 16 17 18 19 20 21 22 23 24 25 26
000
ASUS45 KPSR 270210
RWRAZ

ARIZONA HOURLY REGIONAL WEATHER ROUNDUP
NATIONAL WEATHER SERVICE PHOENIX AZ
700 PM MST THU MAY 26 2016

NOTE: FAIR INDICATES FEW OR NO CLOUDS BELOW 12,000 FEET WITH NO
SIGNIFICANT WEATHER AND/OR OBSTRUCTIONS TO VISIBILITY.

AZZ001>003-036-270300-
NORTHWEST ARIZONA

CITY           SKY/WX    TMP DP  RH WIND       PRES   REMARKS
BULLHEAD CITY  CLEAR     88  32  13 S6        29.80S
KINGMAN        CLEAR     74  24  15 W10       29.92R
$$

AZZ004>008-015-016-018-270300-
NORTH CENTRAL ARIZONA

CITY           SKY/WX    TMP DP  RH WIND       PRES   REMARKS
GRAND CANYON   CLEAR     55  30  38 VRB7      30.05S
WILLIAMS       PTCLDY    54  28  37 N7G14     30.14R
PRESCOTT       PTCLDY    66  25  21 W12       29.97S
FLAGSTAFF      PTCLDY    53  27  36 VRB6      30.06R
PAGE           CLEAR     68  33  27 W12G18    29.91R
$$

AZZ009>014-017-270300-
NORTHEAST ARIZONA

CITY           SKY/WX    TMP DP  RH WIND       PRES   REMARKS
WINSLOW        PTCLDY    65  28  24 W17       29.97R
SAINT JOHNS    CLOUDY    62  23  22 W29G36    29.97R
WINDOW ROCK    MOCLDY    56  25  30 W25G32    30.01R
SHOW LOW       MOCLDY    54  25  32 S10G17    30.05R
$$

AZZ023-270300-
GREATER PHOENIX AREA

CITY           SKY/WX    TMP DP  RH WIND       PRES   REMARKS
PHOENIX        CLEAR     83  27  13 W10       29.80S
BUCKEYE        CLEAR     82  32  16 W6        29.82
GLENDALE       PTCLDY    84  30  14 S10G16    29.82S
LUKE AFB       CLEAR     84  30  14 SW13      29.79S
DEER VALLEY    CLEAR     81  30  15 S15       29.81S
SCOTTSDALE     CLEAR     82  28  14 S12       29.84S
MESA-GATEWAY   CLEAR     81  30  16 SW6       29.85S
CHANDLER       CLEAR     82  28  14 NW7       29.83S
$$

AZZ027-028-270300-
SOUTHWEST MARICOPA COUNTY AND PINAL COUNTY

CITY           SKY/WX    TMP DP  RH WIND       PRES   REMARKS
CASA GRANDE    CLEAR     81  28  15 W9        29.86R
GILA BEND      CLEAR     83  28  13 SW7       29.81S
$$

AZZ503-504-507>509-270300-
SOUTHEAST ARIZONA

CITY           SKY/WX    TMP DP  RH WIND       PRES   REMARKS
TUCSON         CLEAR     78  27  15 N13       29.90R
DAVIS-MONTHAN  CLEAR     76  29  17 NW14      29.89R
RYAN FIELD     CLEAR     79  28  15 NW12      29.89R
NOGALES        CLEAR     73  24  16 W10       29.94R
SIERRA VISTA   CLEAR     69  19  14 W12       29.98R
DOUGLAS        CLEAR     73  14  10 W13       29.93R
SAFFORD        CLEAR     75  21  13 NW17      29.86R
$$

AZZ020-021-025-026-031-270300-
SOUTHWEST ARIZONA

CITY           SKY/WX    TMP DP  RH WIND       PRES   REMARKS
YUMA           PTCLDY    86  33  15 W7        29.80S
$$

CAZ031-033-041-043-047-048-061-270300-
SOUTHERN CALIFORNIA

CITY           SKY/WX    TMP DP  RH WIND       PRES   REMARKS
DOWNTOWN L.A.  CLEAR     65  53  65 W3        29.96S
L.A. AIRPORT   PTCLDY    63  51  65 W14       29.97S
SAN DIEGO      MOCLDY    66  53  63 NW7       30.00S
BURBANK        CLEAR     66  51  58 S8        29.95S
ONTARIO        PTCLDY    69  51  52 W12       29.95R
RIVERSIDE      CLEAR     69  51  52 W13G18    29.95R
PALM SPRINGS     N/A    N/A N/A N/A MISG        N/A
EL CENTRO NAS  PTCLDY    88  37  16 SE5       29.79F
IMPERIAL       CLEAR     89  37  16 SW5       29.77F
BLYTHE         CLEAR     88  37  16 S9        29.78S
NEEDLES        CLEAR     88  30  12 E7        29.79S
$$

NVZ020-UTZ003-270300-
SOUTHERN NEVADA-UTAH

CITY           SKY/WX    TMP DP  RH WIND       PRES   REMARKS
LAS VEGAS      PTCLDY    83  30  14 W10       29.79F
SALT LAKE CITY MOCLDY    68  39  34 W13       29.93R
$$

NMZ009-TXZ055-270300-
NEW MEXICO-WEST TEXAS

CITY           SKY/WX    TMP DP  RH WIND       PRES   REMARKS
ALBUQUERQUE    PTCLDY    65  14  14 W18G24    29.90R
EL PASO        CLEAR     80   4   5 W22G29    29.81R
$$


........................KEY........................
SKY/WX - SKY CONDITION/WEATHER
TMP    - TEMPERATURE IN FAHRENHEIT
DP     - DEW POINT IN FAHRENHEIT
RH     - RELATIVE HUMIDITY IN PERCENT
WIND   - DIRECTION AND SPEED IN MILES PER HOUR (MPH)
VRB    - VARIABLE WIND DIRECTION
PRES   - MEAN SEA LEVEL PRESSURE IN INCHES OF MERCURY
         F - FALLING PRESSURE   R - RISING PRESSURE
         S - STEADY PRESSURE
VSB    - VISIBILITY IN MILES
HX     - HEAT INDEX IN FAHRENHEIT
WCI    - WIND CHILL INDEX IN FAHRENHEIT
TC     - TEMPERATURE IN CELSIUS WHICH IS ALSO KNOWN AS
         TEMPERATURE IN CENTIGRADE
AFB    - AIR FORCE BASE
         LUKE AFB IS LUKE AIR FORCE BASE
         DAVIS-MONTHAN IS DAVIS-MONTHAN AIR FORCE BASE
NAS    - NAVAL AIR STATION
         EL CENTRO NAS IS EL CENTRO NAVAL AIR STATION
N/A    - NOT AVAILABLE





USA.gov is the U.S. government's official web portal to all federal, state and local government web resources and services.